Temp
45 46 45 45 47 48 48 48 48 47 47 48 49 50 50 51 51 52 52 53 54 55 56 57 58 58 59
42 42 42 44 44 43 45 47 47 47 47 48 48 48 49 49 50 50 51 51 51 52 53 54 54 56 57
38 41 41 42 42 43 43 45 46 45 47 47 48 48 48 48 49 49 49 49 49 50 50 51 51 53 55
38 37 39 41 42 39 40 43 43 46 47 47 47 47 47 47 47 47 46 47 48 48 49 49 49 50 51
36 38 38 39 38 40 38 40 42 44 43 44 44 45 46 46 45 45 45 46 47 47 48 48 49 49 50
38 37 37 38 38 37 36 34 32 42 36 37 42 42 43 44 44 44 44 45 46 47 47 47 47 47 48
36 36 36 38 38 36 35 33 33 38 38 35 40 39 43 44 43 43 44 44 45 45 46 46 47 48 47
40 40 40 40 40 39 37 37 38 39 39 31 38 37 41 42 42 42 43 43 44 45 45 45 46 46 46
42 42 41 41 41 39 34 32 31 33 37 35 36 36 38 39 42 42 43 43 43 43 44 44 44 45 46
37 38 38 38 38 37 35 30 30 29 37 31 33 34 31 39 41 41 41 41 41 42 42 43 44 42 41
34 34 35 36 36 37 36 32 28 28 36 33 31 32 31 31 37 39 40 40 40 40 41 41 41 41 38
31 33 33 33 34 35 35 35 35 32 34 34 30 31 30 30 30 37 39 39 39 37 38 40 40 40 40
31 31 32 33 33 33 35 35 35 35 36 35 33 32 32 30 30 32 33 35 38 37 37 36 35 35 33
31 32 33 31 31 33 32 32 31 32 35 35 34 33 30 31 31 30 33 30 36 36 35 35 36 36 34
30 30 31 30 30 32 31 30 28 28 29 33 34 33 32 31 29 32 32 32 34 34 33 33 35 35 35
28 28 27 27 27 29 29 28 25 27 29 31 31 29 32 33 36 32 32 32 32 33 33 31 32 35 36
26 26 26 26 26 26 26 27 26 28 29 30 29 27 25 24 33 35 31 32 31 31 33 32 31 33 34
MSLP
1022.31 1022.02 1021.63 1021.02 1020.40 1019.89 1019.39 1018.88 1018.31 1018.01 1017.62 1017.07 1016.58 1016.14 1015.69 1015.25 1014.85 1014.44 1014.10 1013.71 1013.28 1012.92 1012.57 1012.21 1011.89 1011.75 1011.67
1022.00 1021.62 1021.42 1021.00 1020.46 1019.89 1019.22 1018.63 1017.98 1017.46 1017.03 1016.51 1016.12 1015.71 1015.25 1014.82 1014.34 1013.82 1013.45 1013.19 1012.90 1012.56 1012.13 1011.81 1011.58 1011.07 1010.91
1021.42 1021.37 1020.98 1020.42 1019.77 1019.26 1018.72 1018.02 1017.56 1017.06 1016.45 1015.88 1015.36 1015.04 1014.69 1014.19 1013.77 1013.31 1012.97 1012.68 1012.38 1011.96 1011.69 1011.49 1011.12 1010.77 1010.34
1021.39 1020.81 1020.25 1019.59 1019.12 1018.45 1017.72 1017.66 1016.96 1016.39 1015.69 1015.14 1014.77 1014.36 1013.93 1013.55 1013.23 1012.92 1012.67 1012.22 1011.75 1011.35 1011.05 1010.79 1010.55 1010.37 1009.97
1020.99 1020.26 1019.60 1019.02 1018.61 1018.20 1017.54 1016.67 1016.11 1015.58 1015.03 1014.65 1014.38 1013.84 1013.27 1012.83 1012.50 1012.29 1011.96 1011.49 1010.96 1010.52 1010.19 1009.89 1009.62 1009.37 1009.24
1020.56 1019.90 1019.26 1018.96 1018.52 1017.97 1017.18 1016.40 1015.26 1015.50 1015.19 1014.44 1014.02 1013.04 1012.80 1012.22 1011.78 1011.49 1011.12 1010.59 1010.10 1009.62 1009.31 1009.05 1008.86 1008.67 1008.51
1020.30 1019.83 1019.08 1018.60 1018.05 1017.19 1016.63 1016.30 1015.76 1015.18 1014.76 1013.50 1013.35 1012.55 1012.20 1011.67 1011.31 1010.71 1010.19 1009.78 1009.35 1008.92 1008.51 1008.17 1007.88 1007.64 1007.53
1020.00 1019.18 1018.58 1018.02 1017.52 1016.90 1016.34 1015.67 1015.18 1014.80 1014.51 1013.32 1012.88 1012.02 1011.54 1011.13 1010.63 1010.08 1009.52 1009.02 1008.49 1007.94 1007.63 1007.27 1007.02 1006.78 1006.53
1019.31 1018.69 1018.18 1017.67 1017.25 1016.59 1016.02 1015.59 1014.68 1014.28 1014.09 1013.17 1012.39 1011.49 1010.83 1010.04 1009.54 1009.29 1008.87 1008.37 1007.94 1007.50 1007.01 1006.69 1006.36 1005.96 1005.45
1018.95 1018.48 1018.07 1017.52 1017.03 1016.71 1016.17 1015.53 1014.88 1013.79 1013.54 1013.26 1012.33 1011.82 1009.91 1009.39 1009.01 1008.83 1008.21 1007.74 1007.30 1006.85 1006.41 1005.95 1005.53 1005.20 1004.84
1018.72 1018.38 1017.77 1017.15 1016.57 1016.14 1015.83 1015.54 1014.90 1014.15 1013.30 1013.09 1012.08 1011.53 1011.12 1009.16 1008.59 1008.18 1007.70 1006.94 1006.51 1006.05 1005.70 1005.35 1005.01 1004.77 1004.27
1018.48 1017.77 1017.23 1016.76 1016.30 1015.81 1015.33 1014.80 1014.39 1013.85 1013.08 1012.74 1011.96 1011.34 1010.44 1009.24 1008.07 1007.33 1006.92 1006.44 1005.95 1005.45 1004.98 1004.59 1004.28 1004.02 1003.71
1017.95 1017.40 1017.04 1016.55 1015.98 1015.33 1014.65 1013.99 1013.47 1012.83 1012.36 1011.84 1011.43 1010.74 1010.19 1009.25 1008.16 1007.22 1006.50 1005.85 1005.42 1005.01 1004.63 1004.19 1003.86 1003.64 1003.29
1017.68 1017.08 1016.54 1015.93 1015.34 1014.71 1014.00 1013.33 1012.74 1011.89 1011.54 1011.19 1010.72 1010.40 1009.67 1008.97 1008.15 1007.00 1006.33 1005.90 1005.15 1004.73 1004.32 1003.86 1003.46 1003.18 1002.93
1017.37 1016.73 1016.14 1015.58 1014.98 1014.50 1013.82 1013.18 1012.57 1011.83 1011.13 1010.56 1010.20 1009.86 1009.20 1008.49 1007.53 1006.64 1006.00 1005.57 1005.08 1004.66 1004.22 1003.58 1003.15 1002.93 1002.64
1017.35 1016.77 1016.16 1015.53 1014.95 1014.26 1013.75 1013.19 1012.52 1011.74 1010.91 1010.22 1009.68 1009.03 1007.98 1007.18 1006.68 1006.19 1005.86 1005.49 1005.06 1004.59 1004.10 1003.62 1003.02 1002.84 1002.62
1017.20 1016.54 1016.00 1015.44 1014.78 1014.12 1013.53 1012.91 1012.12 1011.40 1010.64 1010.09 1009.60 1009.05 1008.08 1007.11 1006.32 1006.00 1005.78 1005.35 1005.04 1004.54 1004.15 1003.73 1003.31 1002.92 1002.74
Wind_Speed
8 10 14 15 14 14 13 13 11 17 20 21 21 22 23 23 23 22 22 23 24 26 27 28 28 29 28
11 10 12 13 13 15 11 11 12 15 19 21 22 22 21 22 23 23 22 22 23 24 25 25 26 29 29
11 10 10 10 11 11 11 13 10 16 20 24 23 22 23 24 24 23 23 24 23 24 24 24 24 26 28
10 11 10 9 8 10 11 10 11 12 16 20 23 24 25 23 23 22 22 24 25 24 24 24 23 25 26
9 10 10 11 12 10 11 11 12 12 11 11 10 11 12 17 18 22 22 24 24 24 23 24 24 24 25
11 12 14 13 12 11 12 13 11 6 5 10 10 11 11 11 23 26 24 24 24 24 23 23 22 23 23
15 14 15 15 14 14 11 8 10 11 11 12 9 11 11 12 22 25 25 25 25 25 25 24 24 23 24
13 16 14 13 14 12 13 13 11 10 10 13 11 12 11 10 21 24 25 24 22 21 22 22 21 23 23
20 21 22 25 19 11 9 10 11 10 10 11 10 12 12 11 10 16 18 20 24 24 23 24 24 25 19
13 14 15 15 18 11 9 10 10 11 8 9 10 10 9 9 7 10 9 18 22 22 22 23 23 10 9
10 10 10 10 9 10 10 8 9 9 11 8 8 9 8 12 9 10 11 11 10 12 18 20 20 17 10
8 9 9 9 9 10 12 11 10 12 13 12 9 10 11 12 14 9 10 10 9 9 8 12 17 16 18
10 9 9 9 11 10 10 12 12 12 10 13 11 11 9 11 12 12 12 9 9 7 9 8 7 6 7
9 9 9 7 8 8 9 8 10 10 6 10 10 9 10 10 10 12 11 7 8 8 7 8 7 5 5
9 9 9 9 9 9 8 9 9 9 9 8 9 10 10 13 11 9 9 8 8 8 8 7 5 4 5
9 9 9 9 9 8 8 8 9 9 9 9 9 10 8 6 12 8 7 7 8 8 7 5 5 4 5
8 9 8 8 11 9 8 8 9 9 9 8 8 8 9 9 6 6 7 6 7 7 6 5 5 5 5
Wind_Direction
293 299 298 301 306 311 311 312 311 309 308 305 300 298 297 295 295 291 290 287 283 279 278 277 270 263 260
307 307 302 304 302 300 303 304 303 301 304 304 305 299 297 298 295 290 287 286 287 284 280 276 281 277 269
306 311 305 305 301 294 292 301 296 293 298 297 293 295 294 293 293 292 295 293 290 282 281 282 280 276 274
304 310 307 304 298 300 305 305 297 288 282 282 291 298 295 295 295 295 292 288 285 281 278 276 276 275 274
304 305 310 312 310 313 297 297 293 290 287 289 291 291 287 293 288 292 292 289 283 280 279 279 275 270 267
306 306 306 314 309 304 296 298 299 332 335 293 278 284 288 286 295 301 299 296 292 286 286 285 279 272 273
306 304 304 305 303 296 295 313 300 307 305 294 300 282 288 291 293 293 295 296 294 290 286 282 279 274 268
294 297 292 292 300 308 301 300 298 304 307 293 304 292 295 293 288 289 291 295 295 294 286 284 288 288 270
305 308 306 310 308 309 305 306 300 304 306 291 302 300 297 291 284 282 288 292 297 294 290 291 284 280 273
322 315 312 308 310 305 304 302 303 302 311 301 300 308 305 297 316 294 292 291 293 291 288 289 287 279 277
320 312 305 300 304 302 301 295 293 284 288 296 296 292 280 302 301 299 291 293 294 291 289 288 287 284 278
306 309 311 306 306 302 296 286 272 271 284 285 281 289 288 291 300 303 304 297 291 287 292 289 293 291 287
308 309 312 306 300 295 294 293 285 277 273 277 278 283 283 291 294 298 304 305 300 299 304 298 289 291 290
307 305 304 302 298 299 301 300 307 298 278 289 285 284 291 284 287 295 302 300 306 308 308 303 301 289 276
306 310 316 318 318 317 310 312 310 309 303 311 294 283 276 275 284 286 298 302 309 315 310 312 308 303 309
316 311 311 312 309 309 309 304 306 302 300 304 308 314 306 275 245 278 290 300 312 318 320 307 314 349 322
304 305 304 303 312 307 306 301 301 300 298 301 306 305 306 303 297 282 281 301 310 313 330 324 308 318 319